Location: ActonStarParty
(42.4766°N, 71.4538°W)
Time: 09:01:37
(UTC-04:00)

Cosmos 1300 - Visible Passes

Search period start: 06 May 2016 00:00
Search period end: 16 May 2016 00:00
Orbit: 517 x 519 km, 82.5° (Epoch: 05 May)

Date Brightness Start Highest point End Pass type
(mag) Time Alt. Az. Time Alt. Az. Time Alt. Az.
06 May 5.2 04:11:25 10° NNE 04:14:38 24° ENE 04:17:48 10° SE visible
07 May 5.4 03:57:16 10° NNE 04:00:15 21° ENE 04:03:12 10° SE visible
08 May 5.6 03:43:10 10° NNE 03:45:52 18° ENE 03:48:32 10° ESE visible
09 May 5.7 03:29:08 10° NNE 03:31:28 15° ENE 03:33:46 10° ESE visible
10 May 5.8 03:15:13 10° NE 03:17:03 13° ENE 03:18:53 10° E visible
10 May 3.1 04:49:24 10° NNW 04:53:04 44° W 04:56:43 10° SSW visible
11 May 5.9 03:01:33 10° NE 03:02:38 11° ENE 03:03:42 10° E visible
11 May 2.8 04:35:00 10° NNW 04:38:44 53° W 04:42:29 10° S visible
12 May 2.7 04:20:36 10° NNW 04:24:25 65° W 04:28:13 10° S visible
13 May 2.6 04:06:13 10° N 04:10:05 79° W 04:13:55 10° S visible
14 May 2.7 03:51:52 10° N 03:55:44 85° E 03:59:34 10° S visible
15 May 2.9 03:37:31 10° N 03:41:22 70° E 03:45:03 11° SSE visible
